Skip Page Navigation
NASA JPL Caltech
NASA Logo - Jet Propulsion Laboratory + View the NASA Portal
+ Near-Earth Object (NEO) Program
Search JPL
JPL Home Earth Solar System Stars & Galaxies Technology
JPL Solar System Dynamics
BODIES ORBITS EPHEMERIDES TOOLS PHYSICAL DATA DISCOVERY FAQ SITE MAP
JPL Small-Body Database Browser
Search: [ help ]  
23162 Alexcrook (2000 FX48)
Classification: Main-belt Asteroid          SPK-ID: 2023162
Ephemeris | Orbit Diagram | Orbital Elements | Physical Parameters | Discovery Circumstances ]

[ show orbit diagram ]
Orbital Elements at Epoch 2456400.5 (2013-Apr-18.0) TDB
Reference: MPO160662 (heliocentric ecliptic J2000)
 Element Value Uncertainty (1-sigma)   Units 
e 0.1307290 n/a  
a 2.4601500 n/a AU
q 2.1385371 n/a AU
i 1.81851 n/a deg
node 251.41279 n/a deg
peri 284.35866 n/a deg
M 154.19326 n/a deg
tp 2455796.8242842
(2011-Aug-23.32428420)
n/a JED
period 1409.4212529
3.86
n/a
n/a
d
yr
n 0.25542399 n/a deg/d
Q 2.7817629 n/a AU
  Orbit Determination Parameters
   # obs. used (total)      442  
   first obs. used      1990-??-??  
   last obs. used      2009-08-21  
   # oppositions      12  
   planetary ephem.      DE403  
   condition code      0  
   fit RMS      0.57  
   data source      MPC:mpn  
   producer      MPCMEL  

Additional Information
 T_jup = 3.478 

Ephemeris | Orbit Diagram | Orbital Elements | Physical Parameters | Discovery Circumstances ]

Physical Parameter Table
Parameter Symbol Value Units Sigma Reference Notes
absolute magnitude H 15.0 mag n/a PDS3 (MPO 10229)  

23162 Alexcrook           Discovered 2000 Mar. 30 by the Lincoln Laboratory Near-Earth Asteroid Research Team in Socorro.
Alexandra Elizabeth Crook (b. 1989) was awarded second place in the 2007 Intel International Science and Engineering Fair for her electrical and mechanical engineering project. She attends the Box Elder High School, Brigham City, Utah, U.S.A.
NOTE: some special characters may not display properly (any characters within {} are an attempt to place the proper accent above a character)
Reference: 20070828/MPCPages.arcLast Updated: 2007-08-30

Alternate Designations
 2000 FX48 = 1998 VL45 
Ephemeris | Orbit Diagram | Orbital Elements | Physical Parameters | Discovery Circumstances ]
ABOUT SSD CREDITS/AWARDS PRIVACY/COPYRIGHT GLOSSARY LINKS
FirstGov 2013-May-22 09:15 UT
(server date/time)  
NASA Home Page
Site Manager:   Donald K. Yeomans
Webmaster  Alan B. Chamberlin